Regional Weather Roundup
Issued by NWS Charleston, SC

Current Version | Previous Version | Graphics & Text | Print | Product List | Glossary On
Versions: 1 2 3 4 5 6 7 8 9 10 11 12 13 14 15 16 17 18 19 20 21 22 23 24 25 26 27 28 29 30 31 32 33 34 35 36 37 38 39 40 41 42 43 44 45 46 47 48 49 50
000
ASUS42 KCHS 221710
RWRCHS

REGIONAL WEATHER ROUNDUP
NATIONAL WEATHER SERVICE CHARLESTON SC
100 PM EDT TUE JUL 22 2014

NOTE: "FAIR" INDICATES FEW OR NO CLOUDS BELOW 12,000 FEET WITH NO
SIGNIFICANT WEATHER AND/OR OBSTRUCTIONS TO VISIBILITY.

NOT ALL STATIONS ARE QUALITY CONTROLLED BY THE NATIONAL
WEATHER SERVICE. USE DATA WITH CAUTION...ESPECIALLY
DEWPOINT OBSERVATIONS.

SCZ027-030-031-034>040-042>050-221800-
...SOUTH CAROLINA...

CITY           SKY/WX    TMP DP  RH WIND       PRES   REMARKS
N CHARLESTON   PTSUNNY   86  72  62 SE6       30.10F HX  92
WATERFRONT PRK   N/A     79 N/A N/A E7          N/A
FORT JOHNSON   NOT AVBL
MOUNT PLEASANT FAIR      81  75  83 CALM      30.11S
JOHNS ISLAND   SUNNY     84  63  48 E8        30.11S
PINOPOLIS        N/A     86  79  79 NE3       30.04S HX  99
MONCKS CORNER    N/A     86  79  79 SE5       30.10F HX  99
SUMMERVILLE    FAIR      84  75  74 E3        30.11S HX  92
BEAUFORT MCAS  PTSUNNY   88  72  58 CALM      30.09F HX  94
BEAUFORT ARPT  FAIR      88  73  62 CALM      30.09F HX  96
HILTON HEAD IS PTSUNNY   84  75  74 CALM      30.11F HX  92
GEORGETOWN     NOT AVBL
WALTERBORO     MOSUNNY   86  70  58 SW3       30.11S HX  90
ORANGEBURG     LGT RAIN  83  73  72 CALM      30.10F
BARNWELL       PTSUNNY   84  73  70 SE5       30.11F HX  91
AIKEN          FAIR      82  73  74 SE5       30.15F
MANNING        PTSUNNY   86  77  74 MISG      30.10F HX  97
KINGSTREE      NOT AVBL
COLUMBIA       CLOUDY    84  72  67 E9        30.11F
SUMTER         CLOUDY    81  75  83 NE8       30.11F
FLORENCE       PTSUNNY   82  73  74 VRB6      30.13F
MYRTLE BEACH   PTSUNNY   84  75  74 SE6       30.11F HX  92
N MYRTLE BEACH MOSUNNY   85  74  69 NW5       30.10F HX  92

$$

GAZ063-065-086>088-099>101-113>116-118-119-134-136>141-150-221800-
...GEORGIA...

CITY           SKY/WX    TMP DP  RH WIND       PRES   REMARKS
SAVANNAH ARPT  PTSUNNY   87  71  58 CALM      30.10F HX  93
HUNTER AAF     PTSUNNY   85  73  67 VRB3      30.08F HX  92
FORT STEWART   PTSUNNY   87  72  61 N2        30.09F HX  93
STATESBORO     NOT AVBL
SYLVANIA       MOSUNNY   85  77  76 SE3       30.11F HX  95
CLAXTON        FAIR      86  75  70 CALM      30.10F HX  95
THOMSON        PTSUNNY   81  78  90 N3        30.17S
AUGUSTA-BUSH   PTSUNNY   81  71  71 CALM      30.10F
AUGUSTA-DANIEL CLOUDY    81  73  76 VRB3      30.12F
SWAINSBORO     CLOUDY    86  75  70 CALM      30.11F HX  95
VIDALIA          N/A     86  73  66 CALM      30.10F HX  93
ALMA           PTSUNNY   86  69  56 CALM      30.09F HX  90
WAYCROSS       PTSUNNY   90  74  58 CALM      30.08F HX  99
JESUP          NOT AVBL
BRUNSWICK      MOSUNNY   88  72  58 CALM      30.10F HX  94
SAINT SIMONS   MOSUNNY   85  74  69 E7        30.09F HX  92

$$

SCZ027-028-034-036>038-045-046-048>050-GAZ119-141-221800-
...LAKE AND SUPPLEMENTAL COASTAL OBSERVATIONS...

STATION/POSITION TIME  TEMP    WIND        PRES    WAVE   SWELL
                       AIR SEA DIR/SP/G            HT/PER HT/PER/DIR
                 (UTC) (F)     (DEG/KT/KT) (MB)    (FT/S) (FT/S/D)
UPR LAKE MARION  NOT AVBL
WINYAH BAY       1600   81     100/  6     1020.0S
LAKE MURRAY      1600   78      CALM  /  3 1020.0S
ACE BASIN NERRS  1600   87        CALM     1020.0S
FORT PULASKI     1700   83     270/  2/  4 1019.6S
SAPELO ISLAND    1600   84      20/  3     1020.0S

$$

ANZ835-935-AMZ111-154-330-350-352-354-374-450-454-472-221800-
...C-MAN AND BUOY OBSERVATIONS...

STATION/POSITION TIME  TEMP    WIND        PRES    WAVE   SWELL
                       AIR SEA DIR/SP/G            HT/PER HT/PER/DIR
                 (UTC) (F)     (DEG/KT/KT) (MB)    (FT/S) (FT/S/D)
FOLLY BEACH CMAN 1600   78      80/  8/  8 1020.1S
BUOY 41004       1700   78 82   30/  4/  6 1019.4R   3/ 6   3/ 6
BUOY 41008       1700   80 85   30/  4/  4 1019.4F   2/ 8   2/120/ 8
5E ST. MARYS GA  1700      84                N/A     2/ 8
FRYING PAN BUOY  NOT AVBL
BUOY 41025       1700          VRB 14/ 16  1020.9F   4/ 7   2/130/ 7
CAPE LOOKOUT NC  1600   78     160/ 13/ 15 1020.9R
BUOY 41002       1640   82 83  200/ 12/ 14 1022.4R   4/ 7   3/120/ 7
BUOY 41010       1700   82 83  160/ 16/ 21 1019.1S   5/ 6   2/160/12
BUOY 41012       NOT AVBL
ST AUGUSTINE FL  1700   81      40/ 10/ 10 1019.5F
CAPERS NEARSHORE 1600   76      50/  8/  8   N/A
FRIPP NEARSHORE  NOT AVBL


$$


USA.gov is the U.S. government's official web portal to all federal, state and local government web resources and services.